This is the latest recevied weather packets stored in our database for station/object KY4OP-13. If no packets are shown the sender has not sent any weather packets the latest 10 day(s).
| Time | Temp. | Humidity | Pressure | Rain* | Wind** | Luminosity | Snow |
|---|---|---|---|---|---|---|---|
| 1777862228 | 6.11° C | 69% | 1017.7 hPa | 0 mm | - | - | - |
| 1777861924 | 6.11° C | 68% | 1017.5 hPa | 0 mm | - | - | - |
| 1777861621 | 6.11° C | 68% | 1017.7 hPa | 0 mm | - | - | - |
| 1777861317 | 6.11° C | 66% | 1017.5 hPa | 0 mm | - | - | - |
| 1777861015 | 6.67° C | 67% | 1017.7 hPa | 0 mm | - | - | - |
| 1777860710 | 6.67° C | 65% | 1017.4 hPa | 0 mm | - | - | - |
| 1777860408 | 6.67° C | 64% | 1017.3 hPa | 0 mm | - | - | - |
| 1777860103 | 6.67° C | 64% | 1017.4 hPa | 0 mm | - | - | - |
| 1777859801 | 7.22° C | 62% | 1017.4 hPa | 0 mm | - | - | - |
| 1777859497 | 7.22° C | 60% | 1017.2 hPa | 0 mm | - | - | - |
| 1777859192 | 7.78° C | 60% | 1017.3 hPa | 0 mm | - | - | - |
| 1777858890 | 7.78° C | 59% | 1017.1 hPa | 0 mm | - | - | - |
| 1777858587 | 8.33° C | 60% | 1017.1 hPa | 0 mm | - | - | - |
| 1777858284 | 8.33° C | 59% | 1017.1 hPa | 0 mm | - | - | - |
| 1777857981 | 8.33° C | 60% | 1017 hPa | 0 mm | - | - | - |
| 1777857679 | 8.33° C | 59% | 1017.1 hPa | 0 mm | - | - | - |
| 1777857376 | 8.33° C | 54% | 1016.9 hPa | 0 mm | - | - | - |
| 1777857072 | 8.89° C | 55% | 1017.2 hPa | 0 mm | - | - | - |
| 1777856768 | 9.44° C | 55% | 1017 hPa | 0 mm | - | - | - |
| 1777856464 | 9.44° C | 50% | 1017 hPa | 0 mm | - | - | - |
| 1777856161 | 10° C | 53% | 1016.8 hPa | 0 mm | - | - | - |
| 1777855858 | 10° C | 53% | 1016.7 hPa | 0 mm | - | - | - |
| 1777855556 | 10° C | 50% | 1016.9 hPa | 0 mm | - | - | - |
| 1777855253 | 10° C | 52% | 1016.8 hPa | 0 mm | - | - | - |
| 1777854949 | 10.56° C | 50% | 1016.7 hPa | 0 mm | - | - | - |
* Rain latest hour (hover to see other rain measurements)
** Current wind speed in m/s (hover to see current wind gust speed)